EW0322 Weather Reports


Display with metric or nautical units.
time (UTC)temp
F
wind
direction
speed
MPH
gust
MPH
rain 1hr
in
rain 24hr
in
rain mn
in
humidity
%
barometer
mb
20260509143027 69 194 1.0 4.0 0.00 0.00 0.00 27 1005.8
20260509141523 68 190 2.0 4.0 0.00 0.00 0.00 28 1005.6
20260509140019 67 179 0.0 3.0 0.00 0.00 0.00 30 1005.5
20260509134514 66 179 0.0 1.0 0.00 0.00 0.00 32 1005.4
20260509133009 65 180 0.0 1.0 0.00 0.00 0.00 33 1005.4
20260509131505 63 174 0.0 0.0 0.00 0.00 0.00 35 1005.1
20260509130003 63 173 0.0 0.0 0.00 0.00 0.00 35 1004.8
20260509124615 62 174 0.0 1.0 0.00 0.00 0.00 34 1004.6
20260509123057 63 173 0.0 1.0 0.00 0.00 0.00 34 1004.4
20260509121605 63 174 0.0 1.0 0.00 0.00 0.00 34 1004.1
20260509120108 63 173 0.0 2.0 0.00 0.00 0.00 34 1003.9
20260509114550 63 174 0.0 0.0 0.00 0.00 0.00 34 1003.6
20260509113053 64 174 0.0 0.0 0.00 0.00 0.00 33 1003.6
20260509111547 64 173 0.0 1.0 0.00 0.00 0.00 33 1003.5
20260509110047 64 173 0.0 1.0 0.00 0.00 0.00 33 1003.5
20260509104544 64 173 0.0 1.0 0.00 0.00 0.00 33 1003.5
20260509103036 65 173 0.0 2.0 0.00 0.00 0.00 32 1003.5
20260509101542 65 173 0.0 2.0 0.00 0.00 0.00 32 1003.6
20260509100044 65 174 0.0 0.0 0.00 0.00 0.00 32 1003.5
20260509094539 65 174 0.0 1.0 0.00 0.00 0.00 32 1003.3
20260509093038 66 174 0.0 0.0 0.00 0.00 0.00 32 1003.5
20260509091537 66 174 0.0 1.0 0.00 0.00 0.00 31 1003.3
20260509090041 66 174 0.0 1.0 0.00 0.00 0.00 31 1003.4
20260509084542 67 174 0.0 2.0 0.00 0.00 0.00 31 1003.4
20260509083032 67 174 0.0 2.0 0.00 0.00 0.00 31 1003.4
20260509081533 67 174 0.0 1.0 0.00 0.00 0.00 30 1003.4
20260509080030 68 173 0.0 1.0 0.00 0.00 0.00 30 1003.4
20260509074526 68 173 0.0 2.0 0.00 0.00 0.00 30 1003.5
20260509073038 69 173 0.0 3.0 0.00 0.00 0.00 29 1003.5
20260509071522 69 173 1.0 3.0 0.00 0.00 0.00 28 1003.7
20260509070019 70 173 0.0 3.0 0.00 0.00 0.00 28 1003.6
20260509064518 70 173 1.0 3.0 0.00 0.00 0.00 27 1003.9
20260509063024 71 173 1.0 5.0 0.00 0.00 0.00 27 1003.7
20260509061513 71 175 0.0 3.0 0.00 0.00 0.00 27 1003.9
20260509060020 72 177 2.0 5.0 0.00 0.00 0.00 26 1003.9
20260509054510 72 180 1.0 8.0 0.00 0.00 0.00 25 1003.8
20260509053014 73 182 3.0 6.0 0.00 0.00 0.00 24 1004.0
20260509051509 73 175 2.0 8.0 0.00 0.00 0.00 24 1003.9
20260509050008 74 173 2.0 6.0 0.00 0.00 0.00 23 1004.0
20260509044508 75 173 3.0 7.0 0.00 0.00 0.00 20 1003.9
20260509043006 77 293 0.0 1.0 0.00 0.00 0.00 13 1003.5
20260509041507 78 292 0.0 2.0 0.00 0.00 0.00 13 1003.3
20260509040006 78 293 0.0 1.0 0.00 0.00 0.00 13 1003.1
20260509034505 79 293 0.0 0.0 0.00 0.00 0.00 14 1003.0
20260509033004 79 292 0.0 0.0 0.00 0.00 0.00 14 1002.7
20260509031506 79 292 0.0 0.0 0.00 0.00 0.00 14 1002.6
20260509030005 80 292 0.0 0.0 0.00 0.00 0.00 13 1002.6
20260509024503 81 292 0.0 0.0 0.00 0.00 0.00 13 1002.4
20260509023004 81 293 0.0 0.0 0.00 0.00 0.00 13 1002.2
20260509021504 82 293 0.0 0.0 0.00 0.00 0.00 13 1002.0
20260509020001 83 293 0.0 0.0 0.00 0.00 0.00 12 1002.0
20260509014502 84 292 0.0 0.0 0.00 0.00 0.00 11 1001.8
20260509013101 84 293 0.0 1.0 0.00 0.00 0.00 10 1001.8
20260509011607 85 292 0.0 4.0 0.00 0.00 0.00 10 1001.6
20260509010059 85 292 0.0 5.0 0.00 0.00 0.00 10 1001.7
20260509004611 86 293 0.0 7.0 0.00 0.00 0.00 10 1001.6
20260509003058 87 293 1.0 5.0 0.00 0.00 0.00 9 1001.6
20260509001557 88 293 1.0 7.0 0.00 0.00 0.00 9 1001.5
20260509000058 88 293 0.0 4.0 0.00 0.00 0.00 8 1001.6
20260508234558 88 293 1.0 8.0 0.00 0.00 0.00 8 1001.6
20260508233055 88 296 2.0 8.0 0.00 0.00 0.00 8 1001.6
20260508231555 89 333 0.0 4.0 0.00 0.00 0.00 8 1001.7
20260508230053 89 334 0.0 8.0 0.00 0.00 0.00 8 1001.7
20260508224553 88 349 5.0 11.0 0.00 0.00 0.00 8 1001.7
20260508223056 89 325 2.0 6.0 0.00 0.00 0.00 8 1001.8
20260508221549 90 331 1.0 6.0 0.00 0.00 0.00 8 1002.0
20260508220047 90 333 1.0 6.0 0.00 0.00 0.00 7 1002.2
20260508214554 89 340 2.0 6.0 0.00 0.00 0.00 8 1002.3
20260508213043 90 355 3.0 8.0 0.00 0.00 0.00 7 1002.6
20260508211543 90 12 1.0 7.0 0.00 0.00 0.00 8 1002.9
20260508210037 90 11 2.0 6.0 0.00 0.00 0.00 9 1003.1
20260508204542 88 46 2.0 9.0 0.00 0.00 0.00 9 1003.2
20260508203035 88 84 1.0 6.0 0.00 0.00 0.00 9 1003.4
20260508201532 88 90 0.0 6.0 0.00 0.00 0.00 12 1003.5
20260508200029 85 92 0.0 7.0 0.00 0.00 0.00 14 1003.7
20260508194527 86 94 1.0 8.0 0.00 0.00 0.00 13 1003.9
20260508193026 87 91 0.0 4.0 0.00 0.00 0.00 13 1004.1
20260508191527 86 96 1.0 4.0 0.00 0.00 0.00 14 1004.2
20260508190026 87 101 1.0 7.0 0.00 0.00 0.00 16 1004.3
20260508184518 85 105 0.0 4.0 0.00 0.00 0.00 15 1004.6
20260508183014 83 109 0.0 6.0 0.00 0.00 0.00 15 1004.7
20260508181512 84 109 0.0 7.0 0.00 0.00 0.00 16 1004.8
20260508180016 83 113 1.0 7.0 0.00 0.00 0.00 17 1005.0
20260508174505 83 115 3.0 8.0 0.00 0.00 0.00 17 1005.4
20260508173001 80 115 0.0 8.0 0.00 0.00 0.00 20 1005.4
20260508171558 80 115 0.0 7.0 0.00 0.00 0.00 21 1005.5
20260508170054 80 116 0.0 4.0 0.00 0.00 0.00 20 1005.8
20260508164551 79 116 0.0 4.0 0.00 0.00 0.00 21 1005.8
20260508163049 79 115 0.0 4.0 0.00 0.00 0.00 22 1005.9
20260508161543 77 116 0.0 6.0 0.00 0.00 0.00 22 1006.0
20260508160058 75 115 0.0 8.0 0.00 0.00 0.00 24 1006.2
20260508154534 73 113 1.0 4.0 0.00 0.00 0.00 25 1006.2
20260508153030 72 109 0.0 6.0 0.00 0.00 0.00 25 1006.4
20260508151524 72 102 1.0 6.0 0.00 0.00 0.00 26 1006.4
20260508150022 72 102 0.0 3.0 0.00 0.00 0.00 27 1006.3
20260508144518 73 102 0.0 1.0 0.00 0.00 0.00 26 1006.4